Hourly Data Report for June 04, 2003

All times are specified in Local Standard Time (LST). Add 1 hour to adjust for Daylight Saving Time where and when it is observed.

TORONTO CITY
ONTARIO

43°40'00.000" N
79°24'00.000" W
112.50 m
6158355
71508
XTO

Download Data

Hourly Data (June 2003)
Hourly Data Report for June 4, 2003
TIME Temp Definition
°C
Dew Point Definition
°C
Rel Hum Definition
%
Wind Dir Definition
10's deg

Wind Spd Definition
km/h
Visibility Definition
km
Stn Press Definition
kPa
Hmdx Definition


Wind Chill Definition


Weather Definition


00:00 13.7 1.0 42 LegendMM LegendMM LegendMM 99.96     LegendNANA
01:00 13.4 2.9 49 LegendMM LegendMM LegendMM 99.91     LegendNANA
02:00 13.2 6.3 63 LegendMM LegendMM LegendMM 99.89     LegendNANA
03:00 13.2 7.9 70 LegendMM LegendMM LegendMM 99.89     LegendNANA
04:00 13.1 8.0 71 LegendMM LegendMM LegendMM 99.87     LegendNANA
05:00 13.3 8.0 70 LegendMM LegendMM LegendMM 99.85     LegendNANA
06:00 13.1 9.6 79 LegendMM LegendMM LegendMM 99.90     LegendNANA
07:00 13.5 10.1 80 LegendMM LegendMM LegendMM 99.93     LegendNANA
08:00 14.4 8.4 67 LegendMM LegendMM LegendMM 99.92     LegendNANA
09:00 14.4 8.6 68 LegendMM LegendMM LegendMM 99.91     LegendNANA
10:00 13.3 9.4 77 LegendMM LegendMM LegendMM 99.89     LegendNANA
11:00 12.7 10.1 84 LegendMM LegendMM LegendMM 99.84     LegendNANA
12:00 14.9 9.1 68 LegendMM LegendMM LegendMM 99.77     LegendNANA
13:00 15.7 7.0 56 LegendMM LegendMM LegendMM 99.70     LegendNANA
14:00 15.8 7.3 57 LegendMM LegendMM LegendMM 99.66     LegendNANA
15:00 12.3 8.6 78 LegendMM LegendMM LegendMM 99.64     LegendNANA
16:00 12.1 9.8 86 LegendMM LegendMM LegendMM 99.66     LegendNANA
17:00 11.8 10.7 93 LegendMM LegendMM LegendMM 99.65     LegendNANA
18:00 12.5 11.1 91 LegendMM LegendMM LegendMM 99.58     LegendNANA
19:00 12.9 11.0 88 LegendMM LegendMM LegendMM 99.58     LegendNANA
20:00 13.2 10.7 85 LegendMM LegendMM LegendMM 99.55     LegendNANA
21:00 13.5 10.7 83 LegendMM LegendMM LegendMM 99.55     LegendNANA
22:00 13.1 11.3 89 LegendMM LegendMM LegendMM 99.54     LegendNANA
23:00 12.7 11.4 92 LegendMM LegendMM LegendMM 99.47     LegendNANA

Notes on Data Quality.

Legend

  • E = Estimated
  • M = Missing
  • NA = Not Available
Date modified: